Notices

What's New in latest Release from April 7th, 2021:

- Updated Glossary, including Speed of Maximum Gust, and Total Hourly Precipitation

- Updated national and regional climate services offices contacts and prices information

- Addition of station inventory lists for 1981-2010, 1971-2000, and 1961-1990 Normals.

If you haven't already, please take our survey and provide feedback about our website: https://eccc.sondage-survey.ca/f/LanguageSelection.aspx?s=442ca660-fcf1-47c0-95a9-59707d6fd709

Hourly Data Report for August 06, 2015

IQALUIT CLIMATE
NUNAVUT

63°44'50.000" N
68°32'40.000" W
33.50 m
2402592
71321
XFB

Download Data

Hourly Data (August 2015)
Hourly Data Report for August 6, 2015
TIME
LST
Temp Definition
°C
Dew Point Definition
°C
Rel Hum Definition
%
Precip. Amount Definition
mm

Wind Dir Definition
10's deg

Wind Spd Definition
km/h
Visibility Definition
km
Stn Press Definition
kPa
Hmdx Definition


Wind Chill Definition


Weather Definition


00:00 3.2 2.1 92 0.0 33 6   101.29     LegendNANA
01:00 3.3 2.5 95 0.0 36 4   101.26     LegendNANA
02:00 2.5 1.6 94 0.0 35 5   101.22     LegendNANA
03:00 2.0 1.2 94 0.0 34 4   101.20     LegendNANA
04:00 2.2 1.6 96 0.0 34 6   101.18     LegendNANA
05:00 4.5 3.3 92 0.0 32 7   101.18     LegendNANA
06:00 4.2 2.9 91 0.0 14 4   101.16     LegendNANA
07:00 LegendMM 5.3 75 0.0 33 10   101.12     LegendNANA
08:00 LegendMM 5.0 64 0.0 33 23   101.08     LegendNANA
09:00 LegendMM 4.5 57 0.0 34 22   101.02     LegendNANA
10:00 14.8 4.1 49 0.0 32 16   100.98     LegendNANA
11:00 16.1 4.1 45 0.0 32 18   100.92     LegendNANA
12:00 17.0 4.1 42 0.0 32 20   100.87     LegendNANA
13:00 17.0 3.9 42 0.0 32 26   100.86     LegendNANA
14:00 16.6 5.2 47 0.0 33 26   100.84     LegendNANA
15:00 16.5 5.5 48 0.0 33 27   100.84     LegendNANA
16:00 16.0 6.2 52 0.0 33 26   100.81     LegendNANA
17:00 16.7 6.8 52 0.0 33 28   100.78     LegendNANA
18:00 15.3 7.5 60 0.0 34 21   100.79     LegendNANA
19:00 14.0 9.0 72 0.0 34 22   100.79     LegendNANA
20:00 13.6 8.7 72 0.0 32 12   100.82     LegendNANA
21:00 12.0 9.2 83 0.0 32 15   100.82     LegendNANA
22:00 10.3 8.1 86 0.0 32 20   100.81     LegendNANA
23:00 9.1 6.9 86 0.0 34 19   100.82     LegendNANA

Notes on Data Quality.

Legend

  • E = Estimated
  • M = Missing
  • NA = Not Available*
  • [empty] = Indicates an unobserved value
Date modified: